星链-6259 (STARLINK-6259 )

导读 | 星芒AI

STARLINK-6259 是 SpaceX Starlink 卫星互联网项目中的第 6259 颗卫星。它属于 Starlink 群体部署计划的一部分,旨在通过低地球轨道卫星提供全球高速互联网服务。该卫星于 2023 年发射,运行在约 550 公里的轨道高度,采用先进的推进和通信技术,支持高速、低延迟的网络连接。作为 Starlink 系统的重要组成部分,它有助于提升偏远地区和互联网基础设施薄弱地区的网络覆盖与服务质量。

基本信息
目录编号:
57089
目录名称:
STARLINK-6259
国际标识:
2023-088AT
轨道中心:
EARTH
卫星名称:
星链-6259
卫星全名:
星链-6259 (STARLINK-6259 )
卫星状态:
在轨 (已飞行865 天)
发射日期:
2023-06-22 UTC
国别 :
美国 (US)
星等 :
--
轨道信息
数据来源 国际轨道数据
星历时间: 2025-11-02T09:32:09+0800
1天前
查看轨道信息
半长轴: 6937.229km
偏心率: 0.0001326
轨道倾角: 43.004°
近地点辐角 270.485°
升交点赤经 67.757°
平近点角 89.584°
近地点: 558.174km
远地点: 560.014km
周期: 95.838分钟
每日圈数: 15.025322
详细信息
固有亮度:
5
最大亮度:
2.4
卫星平台:
Starlink v1.5
覆盖范围:
全球
运营商:
太空探索技术公司
运营商所在国:
美国
制造商(研发单位):
太空探索技术公司
制造商所在国:
美国
使用方式:
暂无
卫星简介
星链(Starlink)计划是由太空探索技术公司(SpaceX)提出的一个巨型低轨卫星互联网星座项目,计划在2019年至2024年间在太空搭建由约1.2万颗卫星组成的“星链”网络,其中1584颗将部署在地球上空550千米处的近地轨道,并从2020年开始工作。该卫星仍在工作。
2D轨道图
3D轨道图
轨道高度分析图
轨道倾角分析图
轨道综合分析图
查看轨道综合分析图